Location: Case Canove
(44.7833°N, 11.9833°E)
Time: 15:39:21
(UTC+00:00)

Daily predictions for brighter satellites

Satellite Brightness Start Highest point End
(mag) Time Altitude Azimuth Time Altitude Azimuth Time Altitude Azimuth
Cosmos 1269 Rocket 4.3 15:52:12 10° SSW 15:57:30 73° WNW 16:02:49 10° NNE
Helios 1A Rocket 3.1 15:56:52 10° SSE 16:00:59 82° WSW 16:05:06 10° NNW
Cosmos 1689 Rocket 2.6 15:59:22 10° N 16:02:24 62° WNW 16:05:22 10° SSW
Cosmos 2333 Rocket 2.3 15:59:17 10° SSW 16:05:02 82° ESE 16:10:50 10° NNE
Meteor 1-10 Rocket 4.3 16:00:24 10° S 16:05:50 59° E 16:11:19 10° NNE
Cosmos 1869 Rocket 4.3 16:02:39 10° NNW 16:07:00 59° W 16:11:23 10° S
ERBS 3.7 16:04:33 10° WNW 16:07:44 42° SW 16:10:55 10° SSE
Cosmos 2237 Rocket 2.9 16:04:38 10° SSE 16:09:42 34° ESE 16:14:48 10° NE
Radarsat Rocket 4.2 16:04:58 10° SSE 16:11:13 81° WSW 16:17:05 10° NNW
Cosmos 1302 Rocket 4.1 16:06:02 10° NNW 16:11:20 84° WSW 16:16:34 10° SSE
Cosmos 2322 Rocket 4.3 16:09:58 10° W 16:14:01 20° NW 16:18:06 10° N
CENTAUR R/B 4.3 16:08:50 10° NW 16:16:40 51° WSW 16:24:58 10° S
Cosmos 1812 3.1 16:13:42 10° SSE 16:17:22 43° E 16:21:03 10° NNE
NOSS 0 Rocket 4.2 16:12:56 10° S 16:18:55 54° ESE 16:24:59 10° NE
Meteor 1-11 Rocket 3.9 16:15:40 10° N 16:21:37 61° ENE 16:27:28 10° SSE
SL-16 R/B 4.5 16:18:17 10° W 16:21:45 16° NW 16:25:14 10° N
CORIOLIS 4.3 16:16:45 10° SSE 16:22:02 55° ENE 16:27:21 10° N
USA 215 3.6 16:15:42 10° NE 16:22:09 63° NNW 16:28:34 10° WSW
Cosmos 2219 Rocket 2.4 16:18:11 10° SSW 16:23:47 74° WNW 16:29:27 10° NNE
Cosmos 2251 Rocket 3.7 16:18:44 10° S 16:23:55 57° ESE 16:29:06 10° NNE
Meteor 1-27 Rocket 3.9 16:19:21 10° S 16:24:53 53° E 16:30:34 10° NNE
Exosat Rocket 3.6 16:20:32 10° S 16:25:53 61° ESE 16:30:49 10° NNE
RESURS DK-1 2.8 16:29:50 10° SW 16:33:54 63° WNW 16:38:01 10° NNE
YAOGAN 6 3.7 16:31:15 10° ESE 16:34:01 22° ENE 16:36:51 10° NNE
Cosmos 1500 3.0 16:31:24 10° N 16:35:11 75° E 16:38:55 10° SSE
Cosmos 1862 Rocket 3.5 16:31:18 10° S 16:35:36 69° E 16:39:58 10° NNE
Okean O Rocket 3.5 16:32:14 10° SSW 16:36:10 33° W 16:40:08 10° NNW
IRS-1C Rocket 4.1 16:31:25 10° SSE 16:36:41 87° WSW 16:42:00 10° NNW
Cosmos 1092 Rocket 4.4 16:31:05 10° SSE 16:36:56 42° E 16:42:47 10° NNE
Cosmos 1943 Rocket 3.8 16:36:16 10° N 16:38:58 13° NE 16:39:37 13° NE
Envisat 3.2 16:35:17 10° SE 16:40:09 49° ENE 16:45:03 10° N
Cosmos 1980 3.7 16:34:47 10° SSW 16:40:21 65° ESE 16:45:58 10° NNE
SMAP 3.1 16:36:38 10° SSE 16:41:17 86° WSW 16:45:58 10° NNW
ISS -3.8 16:38:35 10° WNW 16:41:58 86° SSW 16:45:19 10° ESE
Cosmos 2242 Rocket 3.8 16:38:05 10° S 16:42:30 51° E 16:46:57 10° NNE
Cosmos 1900 4.3 16:39:27 10° NNW 16:44:19 60° NE 16:49:08 10° SE
Cosmos 2297 4.4 16:41:19 10° N 16:46:26 33° NE 16:51:30 10° ESE
Feng Yun 1-1 Rocket 4.3 16:41:42 10° SSE 16:47:05 79° WSW 16:52:31 10° NNW
CSL-04 Rocket 4.4 16:42:53 10° ESE 16:47:22 29° ENE 16:51:52 10° N
H-2A R/B 2.8 16:44:19 10° S 16:48:01 76° WSW 16:51:43 10° NNW
STARLINK-60 3.6 16:46:19 10° SSW 16:49:32 44° SE 16:51:03 26° E
Cosmos 1441 Rocket 3.9 16:48:00 10° N 16:51:24 29° ENE 16:54:44 10° SE
Okean-O 2.5 16:47:54 10° SSE 16:52:17 69° ENE 16:56:43 10° N
Cosmos 1992 Rocket 4.0 16:49:19 10° NNW 16:54:34 89° NE 16:59:48 10° SSE
COBE Rocket 3.9 16:50:53 10° N 16:55:33 78° WNW 17:00:14 10° SSW
USA 267 3.7 16:49:48 10° SE 16:56:16 64° SW 17:02:47 10° NW
Cosmos 1536 2.7 16:52:40 10° N 16:56:43 83° E 17:00:42 10° S
Cosmos 1263 4.1 16:54:29 10° S 16:57:30 54° E 16:59:00 25° NNE
COSMOS 2428 3.8 16:52:27 10° SW 16:57:50 43° WNW 17:03:16 10° NNE
BREEZE-M R/B 3.5 16:54:02 10° WNW 16:59:21 41° N 17:00:46 27° NE
Shenzhou-11 Module 2.2 17:01:23 10° W 17:04:04 51° S 17:04:47 37° SE
STARLINK-46 4.2 17:03:58 10° WNW 17:06:12 23° NNW 17:06:36 22° N
Cosmos 292 Rocket 3.7 17:02:28 10° NNW 17:07:20 67° ENE 17:12:09 10° SSE
Lacrosse 5 rocket 2.2 17:05:13 10° WSW 17:09:18 43° NW 17:11:25 23° NNE
CZ-4 R/B 1.4 17:06:37 10° SSE 17:10:22 48° ENE 17:14:07 10° N
Cosmos 1908 Rocket 3.4 17:06:50 10° N 17:11:15 82° E 17:15:37 10° S
Genesis I 3.5 17:09:38 10° NNW 17:13:22 41° NE 17:13:36 40° ENE
Aureole 1 Rocket 2.0 17:10:42 10° S 17:13:37 64° ESE 17:13:53 60° ENE
COSMO-SKYMED 1 2.5 17:11:25 18° NNE 17:14:34 63° ESE 17:18:51 10° S
Nadezhda 4 Rocket 4.4 17:09:07 10° SSW 17:15:23 66° W 17:21:42 10° N
SL-4 R/B 3.0 17:14:41 10° WNW 17:18:10 33° N 17:19:09 29° NNE
Okean 1 3.9 17:14:58 10° SSE 17:18:07 36° ESE 17:18:07 36° ESE
Cosmos 1666 2.7 17:15:56 10° N 17:19:42 79° W 17:23:24 10° S
Cosmos 1428 Rocket 4.5 17:14:04 10° SSE 17:20:03 56° E 17:26:08 10° NNE
FengYun 1-2 T 4.1 17:16:06 10° SSE 17:21:35 83° ENE 17:27:06 10° NNW
YAOGAN 1 2.6 17:17:24 10° SSE 17:21:36 52° ENE 17:25:49 10° N
Cosmos 1553 Rocket 4.3 17:16:29 10° N 17:22:34 45° ENE 17:28:39 10° SSE
NOAA 11 4.4 17:18:35 10° SE 17:23:45 45° ENE 17:28:57 10° N
NOAA 15 4.5 17:20:27 10° SSE 17:25:39 65° ENE 17:30:51 10° N
Cosmos 2278 Rocket 3.4 17:22:37 10° NW 17:27:56 43° WSW 17:33:13 10° S
Okean 1-7 2.9 17:26:26 10° S 17:30:45 81° E 17:32:59 28° NNE
FALCON 9 DEB 3.1 17:29:30 10° SW 17:32:52 78° S 17:32:52 78° S
Cosmos 2026 Rocket 3.8 17:31:33 10° S 17:37:37 86° E 17:43:43 10° N
Cosmos 1190 Rocket 3.9 17:36:29 10° S 17:41:35 59° ESE 17:42:14 55° ENE
Cosmos 2369 Rocket 3.5 17:37:05 10° N 17:39:54 23° NNE 17:39:54 23° NNE
Centaur D-1A AC-31 4.1 17:38:52 10° SSW 17:41:56 16° SSE 17:45:42 13° SE
SL-16 R/B 2.1 17:36:30 10° SSW 17:42:09 72° ESE 17:44:01 43° NE
SeaSat 1 4.3 17:45:12 17° N 17:45:12 17° N 17:46:39 10° N
Meteor 1-19 Rocket 4.2 17:43:26 10° S 17:48:38 55° ESE 17:48:38 55° ESE
Cosmos 2333 Rocket 4.4 17:45:52 10° W 17:50:03 20° NW 17:54:14 10° N
BREEZE-M DEB (TANK) 2.8 17:49:55 10° WNW 17:52:49 48° WNW 17:52:49 48° WNW
Cosmos 2237 Rocket 3.4 17:48:22 10° SW 17:53:41 39° NW 17:57:42 17° N
Cosmos 1417 Rocket 4.3 17:47:33 10° N 17:53:42 72° E 17:59:48 10° SSE
STARLINK-52 4.3 17:51:30 10° WSW 17:53:56 42° WSW 17:53:56 42° WSW
Sich 1 Rocket 3.8 17:58:20 10° NNW 18:02:43 67° W 18:07:03 10° S
Cosmos 921 Rocket 3.5 17:58:48 10° NNW 18:03:01 59° WSW 18:04:17 40° SSW
USA 215 4.3 18:02:28 28° NNE 18:04:28 33° NNW 18:10:10 10° WNW
Cosmos 1655 Rocket 3.9 17:59:18 10° S 18:05:35 70° E 18:06:27 62° NE
Cosmos 614 Rocket 4.4 18:10:45 10° SW 18:15:46 59° WNW 18:16:23 54° NW
ISS -0.7 18:16:37 10° WSW 18:18:14 13° SW 18:18:22 13° SW
Cosmos 1943 Rocket 3.4 18:18:18 10° NNW 18:21:11 30° N 18:21:11 30° N
Cosmos 1140 Rocket 4.2 18:25:37 10° SSW 18:29:29 49° SW 18:29:29 49° SW
Cosmos 407 Rocket 4.3 18:26:12 10° SW 18:31:10 46° WNW 18:31:32 46° NW
NOSS 3-1 (C) 4.4 18:37:42 10° NNW 18:43:13 48° N 18:43:13 48° N
CZ-4 R/B 4.4 18:43:38 10° WSW 18:45:40 14° W 18:47:42 10° WNW
Lacrosse 5 rocket 4.3 18:46:41 10° NW 18:47:04 11° NW 18:47:04 11° NW
SL-16 R/B 4.3 19:22:30 10° W 19:25:57 21° WNW 19:25:57 21° WNW
